Date String (YYYY-MM-DD hh:mm:ss) UTC,Instrument flags,absolute air pressure of the measurement (hPa),sample flow rate (lpm),inlet stack bypass flow (lpm),air temperature of the measurement (°C),ambient temperature measured by the external sensor (°C),aerosol sample conditioner tube jacket temperature (°C),OPC LED temperature (°C),internal box temperature (°C),relative humidity of the measurement (%),span deviation,mass concentration of particles derived from Lorenz-Mie calculation of OPC scattering (μg/m³),mass concentration of particles derived from Lorenz-Mie calculation of OPC scattering (μg/m³),mass concentration of particles derived from Lorenz-Mie calculation of OPC scattering (μg/m³)
DateTimeUTC,F1_M11,P_M11,Q1_M11,Q2_M11,T1_M11,T2_M11,T3_M11,T4_M11,T5_M11,U1_M11,ZSPAN_M11,X0_M11,X2_M11,X1_M11
2023-12-19 01:00:00,SystemResetWarning,0827.4,4.99,000.00,023.2,022.3,000.0,031.5,024.6,11.7,0000.0,0022.48,0006.65,0005.21
2023-12-19 01:01:00,SystemResetWarning,0827.4,5.00,000.00,023.2,022.3,000.0,031.5,024.6,11.6,0000.0,0022.54,0006.58,0005.17
2023-12-19 01:02:00,SystemResetWarning,0827.6,5.00,000.00,023.2,022.4,000.0,031.5,024.6,11.5,0000.0,0021.98,0006.48,0005.13
2023-12-19 01:03:00,SystemResetWarning,0827.5,5.00,000.00,023.2,022.4,000.0,031.5,024.6,12.0,0000.0,0021.59,0006.46,0005.11
2023-12-19 01:04:00,SystemResetWarning,0827.5,5.00,000.00,023.2,022.4,000.0,031.5,024.5,12.2,0000.0,0020.49,0006.41,0005.09
2023-12-19 01:05:00,SystemResetWarning,0827.5,5.00,000.00,023.2,022.4,000.0,031.5,024.5,12.1,0000.0,0020.03,0006.29,0005.03
2023-12-19 01:06:00,SystemResetWarning,0827.7,4.99,000.00,023.2,022.4,000.0,031.5,024.5,11.9,0000.0,0019.79,0006.18,0004.95
2023-12-19 01:07:00,SystemResetWarning,0827.7,5.00,000.00,023.1,022.4,000.0,031.5,024.5,11.8,0000.0,0019.87,0006.08,0004.85
2023-12-19 01:08:00,SystemResetWarning,0827.5,5.02,000.00,023.2,022.4,000.0,031.5,024.5,11.8,0000.0,0019.71,0006.07,0004.82
2023-12-19 01:09:00,SystemResetWarning,0827.5,4.99,000.00,023.1,022.4,000.0,031.5,024.5,11.8,0000.0,0020.09,0006.11,0004.81
2023-12-19 01:10:00,SystemResetWarning,0827.4,4.99,000.00,023.1,022.4,000.0,031.5,024.5,11.9,0000.0,0019.37,0006.11,0004.82
2023-12-19 01:11:00,SystemResetWarning,0827.4,5.00,000.00,023.1,022.4,000.0,031.5,024.5,11.9,0000.0,0017.48,0006.08,0004.80
2023-12-19 01:12:00,SystemResetWarning,0827.4,5.02,000.00,023.1,022.4,000.0,031.5,024.5,11.9,0000.0,0016.64,0006.09,0004.80
2023-12-19 01:13:00,SystemResetWarning,0827.6,4.99,000.00,023.1,022.4,000.0,031.5,024.5,11.8,0000.0,0016.69,0006.19,0004.84
2023-12-19 01:14:00,SystemResetWarning,0827.7,4.99,000.00,023.1,022.4,000.0,031.5,024.6,12.1,0000.0,0017.14,0006.28,0004.89
2023-12-19 01:15:00,SystemResetWarning,0827.7,5.00,000.00,023.2,022.4,000.0,031.5,024.6,12.0,0000.0,0017.44,0006.35,0004.93
2023-12-19 01:16:00,SystemResetWarning,0827.7,4.99,000.00,023.2,022.4,000.0,031.5,024.6,12.1,0000.0,0017.73,0006.42,0004.99
2023-12-19 01:17:00,SystemResetWarning,0827.7,5.00,000.00,023.2,022.4,000.0,031.5,024.6,11.8,0000.0,0018.37,0006.52,0005.06
2023-12-19 01:18:00,SystemResetWarning,0827.7,5.00,000.00,023.2,022.4,000.0,031.5,024.6,11.8,0000.0,0018.05,0006.64,0005.15
2023-12-19 01:19:00,SystemResetWarning,0827.7,5.01,000.00,023.2,022.4,000.0,031.5,024.6,11.8,0000.0,0019.02,0006.72,0005.19
2023-12-19 01:20:00,SystemResetWarning,0827.6,5.00,000.00,023.2,022.4,000.0,031.5,024.6,11.8,0000.0,0018.70,0006.67,0005.19
2023-12-19 01:21:00,SystemResetWarning,0827.7,4.99,000.00,023.2,022.4,000.0,031.5,024.6,11.7,0000.0,0018.38,0006.68,0005.17
2023-12-19 01:22:00,SystemResetWarning,0827.7,5.00,000.00,023.2,022.4,000.0,031.5,024.6,11.7,0000.0,0018.60,0006.73,0005.19
2023-12-19 01:23:00,SystemResetWarning,0827.7,4.99,000.00,023.2,022.4,000.0,031.5,024.6,11.7,0000.0,0018.68,0006.79,0005.23
2023-12-19 01:24:00,SystemResetWarning,0827.7,5.01,000.00,023.2,022.4,000.0,031.5,024.6,11.6,0000.0,0018.52,0006.75,0005.22
2023-12-19 01:25:00,SystemResetWarning,0827.7,5.01,000.00,023.2,022.4,000.0,031.5,024.6,11.7,0000.0,0018.17,0006.71,0005.21
2023-12-19 01:26:00,SystemResetWarning,0827.8,5.01,000.00,023.2,022.4,000.0,031.5,024.6,11.6,0000.0,0018.09,0006.65,0005.18
2023-12-19 01:27:00,SystemResetWarning,0827.7,5.00,000.00,023.2,022.4,000.0,031.5,024.6,11.5,0000.0,0017.54,0006.63,0005.16
2023-12-19 01:28:00,SystemResetWarning,0827.7,4.99,000.00,023.2,022.4,000.0,031.5,024.6,11.6,0000.0,0017.22,0006.68,0005.17
2023-12-19 01:29:00,SystemResetWarning,0827.7,5.00,000.00,023.2,022.4,000.0,031.5,024.6,11.6,0000.0,0016.73,0006.66,0005.16
2023-12-19 01:30:00,SystemResetWarning,0827.7,5.00,000.00,023.2,022.4,000.0,031.5,024.6,11.7,0000.0,0015.69,0006.58,0005.17
2023-12-19 01:31:00,SystemResetWarning,0827.6,4.99,000.00,023.2,022.4,000.0,031.5,024.6,11.7,0000.0,0015.89,0006.63,0005.20
2023-12-19 01:32:00,SystemResetWarning,0827.6,5.00,000.00,023.2,022.4,000.0,031.5,024.6,11.6,0000.0,0016.82,0006.64,0005.21
2023-12-19 01:33:00,SystemResetWarning,0827.5,5.00,000.00,023.2,022.4,000.0,031.5,024.6,11.5,0000.0,0017.18,0006.61,0005.21
2023-12-19 01:34:00,SystemResetWarning,0827.6,5.01,000.00,023.2,022.4,000.0,031.5,024.6,11.5,0000.0,0017.17,0006.61,0005.22
2023-12-19 01:35:00,SystemResetWarning,0827.6,5.00,000.00,023.2,022.4,000.0,031.5,024.6,11.4,0000.0,0018.17,0006.74,0005.28
2023-12-19 01:36:00,SystemResetWarning,0827.5,5.00,000.00,023.2,022.4,000.0,031.5,024.6,11.3,0000.0,0018.25,0006.81,0005.34
2023-12-19 01:37:00,SystemResetWarning,0827.5,5.00,000.00,023.2,022.4,000.0,031.5,024.6,11.1,0000.0,0018.56,0006.90,0005.40
2023-12-19 01:38:00,SystemResetWarning,0827.5,5.00,000.00,023.2,022.4,000.0,031.5,024.6,11.2,0000.0,0018.76,0006.98,0005.44
2023-12-19 01:39:00,SystemResetWarning,0827.6,4.99,000.00,023.2,022.4,000.0,031.5,024.6,11.2,0000.0,0018.71,0006.96,0005.45
2023-12-19 01:40:00,SystemResetWarning,0827.7,5.00,000.00,023.2,022.4,000.0,031.5,024.6,11.1,0000.0,0018.67,0006.99,0005.46
2023-12-19 01:41:00,SystemResetWarning,0827.7,5.00,000.00,023.2,022.4,000.0,031.5,024.6,11.0,0000.0,0018.78,0007.08,0005.46
2023-12-19 01:42:00,SystemResetWarning,0827.6,5.00,000.00,023.2,022.4,000.0,031.5,024.6,11.0,0000.0,0018.44,0007.05,0005.44
2023-12-19 01:43:00,SystemResetWarning,0827.7,5.01,000.00,023.2,022.4,000.0,031.5,024.6,11.1,0000.0,0017.34,0006.98,0005.42
2023-12-19 01:44:00,SystemResetWarning,0827.5,5.01,000.00,023.2,022.4,000.0,031.5,024.6,11.3,0000.0,0016.84,0006.99,0005.39
2023-12-19 01:45:00,SystemResetWarning,0827.9,5.00,000.00,023.2,022.4,000.0,031.5,024.6,10.9,0000.0,0016.87,0006.95,0005.34
2023-12-19 01:46:00,SystemResetWarning,0827.7,4.99,000.00,023.2,022.5,000.0,031.5,024.6,10.7,0000.0,0015.55,0006.76,0005.23
2023-12-19 01:47:00,SystemResetWarning,0827.5,5.00,000.00,023.2,022.5,000.0,031.5,024.6,10.6,0000.0,0015.32,0006.61,0005.10
2023-12-19 01:48:00,SystemResetWarning,0827.9,5.00,000.00,023.2,022.5,000.0,031.5,024.6,10.7,0000.0,0014.74,0006.48,0005.01
2023-12-19 01:49:00,SystemResetWarning,0827.7,5.01,000.00,023.2,022.5,000.0,031.5,024.6,10.6,0000.0,0014.93,0006.41,0004.97
2023-12-19 01:50:00,SystemResetWarning,0827.6,5.00,000.00,023.2,022.4,000.0,031.5,024.6,10.7,0000.0,0015.17,0006.31,0004.89
2023-12-19 01:51:00,SystemResetWarning,0827.7,5.00,000.00,023.2,022.4,000.0,031.5,024.6,11.0,0000.0,0014.64,0006.17,0004.78
2023-12-19 01:52:00,SystemResetWarning,0827.4,5.00,000.00,023.2,022.4,000.0,031.5,024.5,11.3,0000.0,0014.44,0005.98,0004.66
2023-12-19 01:53:00,SystemResetWarning,0827.4,5.01,000.00,023.2,022.4,000.0,031.5,024.5,11.4,0000.0,0015.15,0005.87,0004.56
2023-12-19 01:54:00,SystemResetWarning,0827.4,4.99,000.00,023.2,022.4,000.0,031.5,024.4,11.0,0000.0,0015.25,0005.85,0004.49
2023-12-19 01:55:00,SystemResetWarning,0827.3,4.99,000.00,023.1,022.3,000.0,031.5,024.4,10.9,0000.0,0015.32,0005.74,0004.43
2023-12-19 01:56:00,SystemResetWarning,0827.3,5.00,000.00,023.1,022.3,000.0,031.5,024.5,11.3,0000.0,0014.77,0005.60,0004.35
2023-12-19 01:57:00,SystemResetWarning,0827.2,5.00,000.00,023.1,022.3,000.0,031.5,024.4,10.6,0000.0,0014.48,0005.54,0004.28
2023-12-19 01:58:00,SystemResetWarning,0827.3,5.00,000.00,023.1,022.3,000.0,031.5,024.5,10.0,0000.0,0014.37,0005.52,0004.26
2023-12-19 01:59:00,SystemResetWarning,0827.2,5.00,000.00,023.1,022.3,000.0,031.5,024.5,10.0,0000.0,0014.70,0005.42,0004.16
